Location: Unspecified
(48.7670°N, 0.0000°E)
Time: 06:21:24
(UTC+00:00)

A-11 Canister half - Pass Details

Date: 04 July 2019
Orbit: 1527 x 1682 km, 47.3° (Epoch: 13 October)

Event Time Altitude Azimuth Distance (km) Brightness Sun altitude
Exits shadow 02:35:16 - 244° (WSW) 4,099 10.7 -10.8°
Reaches altitude 10° 02:36:13 10° 244° (WSW) 3,801 10.5 -10.7°
Maximum altitude 02:45:46 72° 162° (SSE) 1,624 9.0 -9.8°
Drops below altitude 10° 02:55:04 10° 81° (E) 3,709 11.8 -8.8°
Sets 02:58:06 0° 80° (E) 4,686 12.4 -8.5°
